When you browse on this site, cookies collect data to enhance your experience and personalize the content and advertising you see.
Visit our Privacy Policy to learn more. By continuing to use the site, you agree to this use of cookies and data.

Météo par heure à Iraklio

Ce jour, 8 Août, Samedi

Heure Température Précipitation Vent Pression Humidité
00:00 +23°C° 0 mm 4 m/s 751 mmHg 81%
01:00 +24°C° 0 mm 3 m/s 750 mmHg 75%
02:00 +22°C° 0 mm 3 m/s 750 mmHg 73%
03:00 +22°C° 0 mm 4 m/s 750 mmHg 72%
04:00 +22°C° 0 mm 4 m/s 750 mmHg 70%
05:00 +22°C° 0 mm 4 m/s 750 mmHg 69%
06:00 +25°C° 0 mm 4 m/s 750 mmHg 65%
07:00 +26°C° 0 mm 4 m/s 750 mmHg 60%
08:00 +29°C° 0 mm 4 m/s 750 mmHg 55%
09:00 +30°C° 0 mm 5 m/s 750 mmHg 51%
10:00 +32°C° 0 mm 6 m/s 751 mmHg 48%
11:00 +33°C° 0 mm 6 m/s 751 mmHg 44%
12:00 +33°C° 0 mm 6 m/s 750 mmHg 45%
13:00 +33°C° 0 mm 7 m/s 750 mmHg 47%
14:00 +33°C° 0 mm 7 m/s 750 mmHg 48%
15:00 +32°C° 0 mm 7 m/s 750 mmHg 52%
16:00 +30°C° 0 mm 7 m/s 750 mmHg 56%
17:00 +29°C° 0 mm 7 m/s 749 mmHg 60%
18:00 +28°C° 0 mm 6 m/s 749 mmHg 66%
19:00 +27°C° 0 mm 6 m/s 749 mmHg 73%
20:00 +26°C° 0 mm 5 m/s 749 mmHg 80%
21:00 +25°C° 0 mm 5 m/s 749 mmHg 81%
22:00 +23°C° 0 mm 4 m/s 749 mmHg 82%
23:00 +23°C° 0 mm 4 m/s 749 mmHg 83%

Demain, 9 Août, Dimanche

Heure Température Précipitation Vent Pression Humidité
00:00 +23°C° 0 mm 4 m/s 748 mmHg 81%
01:00 +22°C° 0 mm 4 m/s 748 mmHg 79%
02:00 +22°C° 0 mm 4 m/s 747 mmHg 77%
03:00 +22°C° 0 mm 4 m/s 747 mmHg 77%
04:00 +22°C° 0 mm 4 m/s 747 mmHg 76%
05:00 +22°C° 0 mm 4 m/s 747 mmHg 75%
06:00 +25°C° 0 mm 4 m/s 747 mmHg 71%
07:00 +26°C° 0 mm 5 m/s 747 mmHg 66%
08:00 +28°C° 0 mm 5 m/s 747 mmHg 61%
09:00 +29°C° 0 mm 6 m/s 747 mmHg 59%
10:00 +30°C° 0 mm 6 m/s 748 mmHg 57%
11:00 +32°C° 0 mm 7 m/s 748 mmHg 55%
12:00 +32°C° 0 mm 7 m/s 748 mmHg 55%
13:00 +32°C° 0 mm 7 m/s 748 mmHg 54%
14:00 +32°C° 0 mm 7 m/s 748 mmHg 54%
15:00 +32°C° 0 mm 7 m/s 748 mmHg 57%
16:00 +30°C° 0 mm 7 m/s 747 mmHg 60%
17:00 +30°C° 0 mm 7 m/s 747 mmHg 63%
18:00 +28°C° 0 mm 7 m/s 747 mmHg 69%
19:00 +27°C° 0 mm 6 m/s 747 mmHg 76%
20:00 +26°C° 0 mm 6 m/s 747 mmHg 82%
21:00 +26°C° 0 mm 6 m/s 747 mmHg 80%
22:00 +26°C° 0 mm 6 m/s 747 mmHg 78%
23:00 +26°C° 0 mm 6 m/s 748 mmHg 76%

Après-demain, 10 Août, Lundi

Heure Température Précipitation Vent Pression Humidité
00:00 +26°C° 0.1 mm 6 m/s 747 mmHg 77%
01:00 +26°C° 0.1 mm 5 m/s 747 mmHg 78%
02:00 +26°C° 0.1 mm 5 m/s 747 mmHg 78%
03:00 +26°C° 0.1 mm 5 m/s 747 mmHg 82%
04:00 +25°C° 0.1 mm 5 m/s 747 mmHg 86%
05:00 +25°C° 0.1 mm 5 m/s 747 mmHg 89%
06:00 +26°C° 0 mm 6 m/s 747 mmHg 83%
07:00 +27°C° 0 mm 6 m/s 748 mmHg 77%
08:00 +28°C° 0 mm 7 m/s 748 mmHg 71%
09:00 +29°C° 0 mm 7 m/s 748 mmHg 69%
10:00 +29°C° 0 mm 7 m/s 749 mmHg 66%
11:00 +30°C° 0 mm 7 m/s 749 mmHg 64%
12:00 +30°C° 0 mm 7 m/s 749 mmHg 62%
13:00 +30°C° 0 mm 7 m/s 749 mmHg 61%
14:00 +30°C° 0 mm 7 m/s 749 mmHg 60%
15:00 +29°C° 0 mm 7 m/s 750 mmHg 60%
16:00 +29°C° 0 mm 7 m/s 750 mmHg 61%
17:00 +29°C° 0 mm 7 m/s 750 mmHg 61%
18:00 +27°C° 0 mm 6 m/s 750 mmHg 67%
19:00 +26°C° 0 mm 6 m/s 750 mmHg 72%
20:00 +23°C° 0 mm 5 m/s 750 mmHg 78%
21:00 +23°C° 0 mm 5 m/s 750 mmHg 76%
22:00 +23°C° 0 mm 5 m/s 751 mmHg 73%
23:00 +23°C° 0 mm 5 m/s 751 mmHg 71%

11 Août, Mardi

Heure Température Précipitation Vent Pression Humidité
00:00 +23°C° 0 mm 5 m/s 751 mmHg 69%
01:00 +25°C° 0 mm 5 m/s 750 mmHg 67%
02:00 +24°C° 0 mm 6 m/s 750 mmHg 65%
03:00 +24°C° 0 mm 6 m/s 750 mmHg 69%
04:00 +23°C° 0 mm 5 m/s 750 mmHg 72%
05:00 +23°C° 0 mm 5 m/s 750 mmHg 76%
06:00 +26°C° 0 mm 6 m/s 750 mmHg 65%
07:00 +28°C° 0 mm 6 m/s 751 mmHg 54%
08:00 +30°C° 0 mm 7 m/s 751 mmHg 43%
09:00 +32°C° 0 mm 7 m/s 751 mmHg 41%
10:00 +32°C° 0 mm 7 m/s 751 mmHg 38%
11:00 +33°C° 0 mm 7 m/s 752 mmHg 36%
12:00 +33°C° 0 mm 7 m/s 752 mmHg 37%
13:00 +33°C° 0 mm 7 m/s 751 mmHg 39%
14:00 +33°C° 0 mm 7 m/s 751 mmHg 40%
15:00 +32°C° 0 mm 7 m/s 751 mmHg 43%
16:00 +32°C° 0 mm 7 m/s 751 mmHg 46%
17:00 +30°C° 0 mm 6 m/s 751 mmHg 49%
18:00 +28°C° 0 mm 6 m/s 751 mmHg 52%
19:00 +27°C° 0 mm 6 m/s 751 mmHg 56%
20:00 +25°C° 0 mm 5 m/s 751 mmHg 60%
21:00 +25°C° 0 mm 5 m/s 751 mmHg 60%
22:00 +25°C° 0 mm 5 m/s 751 mmHg 61%
23:00 +25°C° 0 mm 5 m/s 751 mmHg 62%

12 Août, Mercredi

Heure Température Précipitation Vent Pression Humidité
00:00 +25°C° 0 mm 5 m/s 750 mmHg 58%
01:00 +25°C° 0 mm 5 m/s 750 mmHg 55%
02:00 +25°C° 0 mm 5 m/s 750 mmHg 51%
03:00 +25°C° 0 mm 5 m/s 750 mmHg 55%
04:00 +25°C° 0 mm 5 m/s 750 mmHg 58%
05:00 +25°C° 0 mm 5 m/s 749 mmHg 61%
06:00 +26°C° 0 mm 5 m/s 750 mmHg 54%
07:00 +28°C° 0 mm 6 m/s 750 mmHg 47%
08:00 +30°C° 0 mm 6 m/s 750 mmHg 40%
09:00 +32°C° 0 mm 6 m/s 750 mmHg 38%
10:00 +33°C° 0 mm 7 m/s 750 mmHg 35%
11:00 +34°C° 0 mm 7 m/s 750 mmHg 33%
12:00 +34°C° 0 mm 7 m/s 750 mmHg 34%
13:00 +34°C° 0 mm 7 m/s 750 mmHg 34%
14:00 +35°C° 0 mm 7 m/s 750 mmHg 35%
15:00 +34°C° 0 mm 7 m/s 750 mmHg 37%
16:00 +33°C° 0 mm 7 m/s 750 mmHg 39%
17:00 +33°C° 0 mm 7 m/s 750 mmHg 41%
18:00 +30°C° 0 mm 6 m/s 750 mmHg 46%
19:00 +28°C° 0 mm 5 m/s 750 mmHg 52%
20:00 +27°C° 0 mm 5 m/s 750 mmHg 58%
21:00 +27°C° 0 mm 5 m/s 750 mmHg 58%
22:00 +26°C° 0 mm 5 m/s 750 mmHg 58%
23:00 +26°C° 0 mm 4 m/s 750 mmHg 58%

13 Août, Jeudi

Heure Température Précipitation Vent Pression Humidité
00:00 +26°C° 0 mm 5 m/s 750 mmHg 56%
01:00 +26°C° 0 mm 5 m/s 749 mmHg 54%
02:00 +27°C° 0 mm 5 m/s 749 mmHg 52%
03:00 +27°C° 0 mm 5 m/s 749 mmHg 53%
04:00 +27°C° 0 mm 5 m/s 749 mmHg 55%
05:00 +27°C° 0 mm 5 m/s 749 mmHg 56%
06:00 +28°C° 0 mm 6 m/s 749 mmHg 51%
07:00 +30°C° 0 mm 6 m/s 749 mmHg 45%
08:00 +33°C° 0 mm 6 m/s 749 mmHg 40%
09:00 +33°C° 0 mm 7 m/s 749 mmHg 39%
10:00 +34°C° 0 mm 7 m/s 750 mmHg 37%
11:00 +35°C° 0 mm 7 m/s 750 mmHg 36%
12:00 +35°C° 0 mm 7 m/s 750 mmHg 35%
13:00 +35°C° 0 mm 7 m/s 750 mmHg 35%
14:00 +35°C° 0 mm 7 m/s 750 mmHg 35%
15:00 +34°C° 0 mm 7 m/s 750 mmHg 37%
16:00 +33°C° 0 mm 7 m/s 749 mmHg 39%
17:00 +33°C° 0 mm 7 m/s 749 mmHg 41%
18:00 +30°C° 0 mm 6 m/s 750 mmHg 48%
19:00 +28°C° 0 mm 6 m/s 750 mmHg 54%
20:00 +26°C° 0 mm 5 m/s 750 mmHg 61%
21:00 +26°C° 0 mm 5 m/s 750 mmHg 61%
22:00 +26°C° 0 mm 5 m/s 750 mmHg 61%
23:00 +26°C° 0 mm 5 m/s 750 mmHg 61%
Voir plus